Shaw AFB, SC

4:08 PM EST on November 22, 2017 (GMT -0500)
Shaw Air Force Base

Weather History for KSSC - September, 2013

Change the Weather History Date:

Wednesday, September 18, 2013

  Actual Average Record
Temperature  
Mean Temperature 68 °F -  
Max Temperature 80 °F 81 °F 93 °F (2005)
Min Temperature 56 °F 61 °F 51 °F (2001)
Cooling Degree Days 2    
Growing Degree Days 18 (Base 50)    
Moisture  
Dew Point 54 °F    
Average Humidity 68    
Maximum Humidity 89    
Minimum Humidity 42    
Precipitation  
Precipitation 0.00 in - - ()
Sea Level Pressure  
Sea Level Pressure 30.20 in    
Wind  
Wind Speed 8 mph (NE)    
Max Wind Speed 13 mph    
Max Gust Speed 18 mph    
Visibility 10 miles    
Events      
Averages and records for this station are not official NWS values.
T = Trace of Precipitation, MM = Missing Value Source: NWS Daily Summary

Daily Weather History Graph

Daily Weather History Graph

Search for Another Location

Airport or City:

Trip Planner

Search our weather history database for the weather conditions in past years. The results will help you decide how hot, cold, wet, or windy it might be!

Date:

Astronomy

Sep. 18, 2013 Rise Set
Actual Time 7:07 AM EDT 7:23 PM EDT
Civil Twilight 6:42 AM EDT 7:48 PM EDT
Nautical Twilight 6:13 AM EDT 8:18 PM EDT
Astronomical Twilight 5:43 AM EDT 8:47 PM EDT
Moon 6:46 PM EDT (9/18) 6:08 AM EDT (9/18)
Length of Visible Light 13h 06m
Length of Day
12h 16m
Waxing Gibbous, 99% of the Moon is Illuminated
Sep 18
Waxing Gibbous
Sep 19
Full
Sep 26
Last Quarter
Oct 4
New
Oct 11
First Quarter

Hourly Weather History & Observations

Time (EDT) Temp. Dew Point Humidity Pressure Visibility Wind Dir Wind Speed Gust Speed Precip Events Conditions
12:58 AM 61.9 °F 55.4 °F 79% 30.21 in 10.0 mi NE 6.9 mph - N/A   Clear
1:58 AM 60.6 °F 55.6 °F 83% 30.22 in 10.0 mi NE 6.9 mph - N/A   Clear
2:58 AM 59.0 °F 55.4 °F 88% 30.22 in 10.0 mi NE 6.9 mph - N/A   Clear
3:58 AM 60.1 °F 55.4 °F 85% 30.21 in 10.0 mi NE 8.1 mph - N/A   Clear
4:58 AM 58.3 °F 55.0 °F 89% 30.21 in 10.0 mi NE 8.1 mph - N/A   Clear
5:58 AM 57.6 °F 53.6 °F 87% 30.22 in 10.0 mi NE 9.2 mph - N/A   Clear
6:58 AM 56.3 °F 53.1 °F 89% 30.25 in 10.0 mi NNE 6.9 mph - N/A   Clear
7:58 AM 56.8 °F 53.2 °F 88% 30.25 in 10.0 mi NE 6.9 mph - N/A   Clear
8:23 AM 59.0 °F 53.6 °F 82% 30.25 in 10.0 mi NE 9.2 mph - N/A   Light Drizzle
8:28 AM 59.0 °F 53.6 °F 82% 30.25 in 10.0 mi NE 10.4 mph - N/A   Light Drizzle
8:58 AM 61.2 °F 53.4 °F 76% 30.25 in 10.0 mi ENE 12.7 mph - N/A   Scattered Clouds
9:58 AM 64.0 °F 52.5 °F 66% 30.25 in 10.0 mi NE 10.4 mph - N/A   Clear
10:58 AM 70.3 °F 53.1 °F 54% 30.25 in 10.0 mi ENE 11.5 mph 18.4 mph N/A   Clear
11:58 AM 73.2 °F 52.5 °F 48% 30.24 in 10.0 mi East 9.2 mph - N/A   Clear
12:58 PM 75.2 °F 52.3 °F 45% 30.22 in 10.0 mi ENE 8.1 mph - N/A   Clear
1:58 PM 76.6 °F 53.4 °F 44% 30.20 in 10.0 mi North 11.5 mph - N/A   Clear
2:58 PM 78.1 °F 54.0 °F 43% 30.18 in 10.0 mi East 8.1 mph - N/A   Clear
3:58 PM 79.0 °F 54.3 °F 42% 30.15 in 10.0 mi Variable 4.6 mph - N/A   Clear
4:58 PM 79.5 °F 54.5 °F 42% 30.14 in 10.0 mi NE 10.4 mph - N/A   Clear
5:58 PM 78.4 °F 54.7 °F 44% 30.13 in 10.0 mi ENE 5.8 mph - N/A   Partly Cloudy
6:58 PM 75.4 °F 55.6 °F 50% 30.14 in 10.0 mi East 5.8 mph - N/A   Overcast
7:58 PM 70.7 °F 55.4 °F 58% 30.15 in 10.0 mi East 4.6 mph - N/A   Partly Cloudy
8:58 PM 68.0 °F 56.3 °F 66% 30.17 in 10.0 mi NNE 1.2 mph - N/A   Clear
9:58 PM 63.7 °F 57.4 °F 80% 30.17 in 10.0 mi NE 4.6 mph - N/A   Clear
10:58 PM 62.2 °F 56.3 °F 81% 30.17 in 10.0 mi NE 3.5 mph - N/A   Clear
11:58 PM 60.8 °F 55.4 °F 82% 30.17 in 10.0 mi NE 2.3 mph - N/A   Clear